Location: Vihti�l�
(61.3833°N, 23.0667°E)
Time: 05:47:19
(UTC+00:00)

MSX - Pass Details

Date: 29 November 2020
Orbit: 895 x 905 km, 98.8° (Epoch: 22 January)

Event Time Altitude Azimuth Distance (km) Brightness Sun altitude
Rises 03:06:10 0° 19° (NNE) 3,528 7.2 -27.1°
Reaches altitude 10° 03:08:37 10° 16° (NNE) 2,585 6.4 -26.8°
Enters shadow 03:13:22 50° 331° (NNW) 1,133 4.1 -26.3°
